This is the latest recevied weather packets stored in our database for station/object F1DKL-13. If no packets are shown the sender has not sent any weather packets the latest 10 day(s).
| Time | Temp. | Humidity | Pressure | Rain* | Wind** | Luminosity | Snow |
|---|---|---|---|---|---|---|---|
| 1777377905 | 18.89° C | 38% | 1020.4 hPa | 0 mm | - | - | - |
| 1777377605 | 19.44° C | 36% | 1020.4 hPa | 0 mm | - | - | - |
| 1777377305 | 20° C | 34% | 1020.4 hPa | 0 mm | - | - | - |
| 1777377005 | 20.56° C | 31% | 1020.4 hPa | 0 mm | - | - | - |
| 1777376705 | 21.11° C | 24% | 1020.4 hPa | 0 mm | - | - | - |
| 1777376405 | 21.67° C | 12% | 1019.3 hPa | 0 mm | - | - | - |
| 1777376105 | 22.22° C | 3% | 1019.3 hPa | 0 mm | - | - | - |
| 1777375805 | 22.78° C | 3% | 1019.3 hPa | 0 mm | - | - | - |
| 1777375505 | 23.33° C | 2% | 1019.3 hPa | 0 mm | - | - | - |
| 1777375205 | 24.44° C | 2% | 1019.3 hPa | 0 mm | - | - | - |
| 1777374905 | 25° C | 2% | 1019.3 hPa | 0 mm | - | - | - |
| 1777374605 | 25° C | 2% | 1020.4 hPa | 0 mm | - | - | - |
| 1777374305 | 25° C | 2% | 1020.4 hPa | 0 mm | - | - | - |
| 1777374008 | 25.56° C | 2% | 1020.4 hPa | 0 mm | - | - | - |
| 1777373705 | 26.67° C | 2% | 1020.4 hPa | 0 mm | - | - | - |
| 1777373408 | 25.56° C | 2% | 1020.4 hPa | 0 mm | - | - | - |
| 1777373105 | 26.11° C | 2% | 1020.4 hPa | 0 mm | - | - | - |
| 1777372808 | 26.67° C | 2% | 1021.5 hPa | 0 mm | - | - | - |
| 1777372505 | 26.11° C | 2% | 1021.5 hPa | 0 mm | - | - | - |
| 1777372209 | 26.67° C | 2% | 1021.5 hPa | 0 mm | - | - | - |
| 1777371905 | 26.11° C | 2% | 1021.5 hPa | 0 mm | - | - | - |
| 1777371606 | 26.67° C | 2% | 1021.5 hPa | 0 mm | - | - | - |
| 1777371308 | 26.11° C | 2% | 1021.5 hPa | 0 mm | - | - | - |
| 1777371005 | 25.56° C | 2% | 1021.5 hPa | 0 mm | - | - | - |
| 1777370705 | 25° C | 2% | 1021.5 hPa | 0 mm | - | - | - |
* Rain latest hour (hover to see other rain measurements)
** Current wind speed in m/s (hover to see current wind gust speed)